Flag for Italy Weather past 2 weeks in Trieste, Italy

Now
68 °F

Sunny.


Feels Like: 68 °F
Forecast: 65 / 88 °F
Wind: No wind

Location: Trieste

Current Time: Jul 1, 2015 at 7:50:55 AM

Latest Report: Jul 1, 2015 at 6:00 AM


Visibility: 13 mi

Pressure: 30.13 "Hg

Humidity: 68%

Dew point: 57 °F

Location of TriesteLocation

Historic Weather in Trieste — Graph

°F

Trieste temperature yesterday

Maximum temperature yesterday: 84 °F (at 4:00 PM)
Minimum temperature yesterday: 69 °F (at 3:00 AM)
Average temperature yesterday: 76 °F

Past Weeks' High & Low Weather Summary

 TemperatureHumidityPressure
High84 °F (Jun 30, 4:00 PM)91% (Jun 17, 2:00 AM)30.20 "Hg (Jun 17, 2:00 AM)
Low56 °F (Jun 23, 11:00 PM)25% (Jun 18, 7:00 PM)29.76 "Hg (Jun 23, 11:00 AM)
Average70 °F61%30.01 "Hg
* Reported Jun 16 6:00 AM — Jul 1 6:00 AM, Trieste, Weather by CustomWeather, © 2015

Note: Actual official high and low records may vary slightly from our data, if they occured in-between our weather recording intervals... More about our weather records

Advertising

Trieste weather history for previous 24 hours

 ConditionsComfort  
Time TempWeatherWind HumidityBarometerVisibility
6:00 AM
Wed, Jul 1
68 °FSunny.No wind68%30.13 "Hg12 mi
5:00 AM69 °FClear.1 mph63%30.13 "Hg12 mi
4:00 AM69 °FClear.1 mph63%30.12 "Hg12 mi
3:00 AM70 °FClear.No wind63%30.13 "Hg12 mi
2:00 AM72 °FClear.No wind59%30.13 "Hg12 mi
1:00 AM72 °FClear.1 mph63%30.13 "Hg12 mi
12:00 AM72 °FClear.1 mph65%30.13 "Hg12 mi
11:00 PM
Tue, Jun 30
73 °FClear.2 mph68%30.12 "Hg12 mi
10:00 PM73 °FClear.2 mph63%30.11 "Hg12 mi
9:00 PM77 °FClear.1 mph61%30.11 "Hg12 mi
8:00 PM81 °FSunny.No wind63%30.10 "Hg12 mi
6:00 PM82 °FSunny.No wind64%30.10 "Hg12 mi
4:00 PM84 °FPassing clouds.No wind67%30.11 "Hg12 mi
3:00 PM82 °FPassing clouds.No wind50%30.11 "Hg12 mi
2:00 PM83 °FPassing clouds.No wind57%30.12 "Hg12 mi
1:00 PM81 °FScattered clouds.No wind68%30.12 "Hg12 mi
12:00 PM81 °FScattered clouds.2 mph65%30.13 "Hg12 mi
11:00 AM81 °FScattered clouds.No wind70%30.12 "Hg12 mi
10:00 AM81 °FScattered clouds.1 mph65%30.12 "Hg12 mi
9:00 AM79 °FScattered clouds.No wind55%30.12 "Hg12 mi
8:00 AM75 °FScattered clouds.6 mph61%30.11 "Hg12 mi
7:00 AM72 °FScattered clouds.No wind70%30.11 "Hg12 mi
Weather by CustomWeather, © 2015

See weather overviewHow to use our weather pages